Group_ship,Cruise,JD_GMT,Date_DDMMYYYY,TIME_HH:MM:SS,Lat_dec_degree,Long_dec_degree,xCO2eq_ppm,xCO2a_ppm,Pres_Equi_hPa,Pres_sealevel_hPa,EqTemp_C,SST(TSG)_C,Sal(TSG)_Permil,Water_flow_l/min,Gasflow_IR_ml/min,Temp_IR_C,Pres_IR_hPa,Ship_heading_true_degree,Ship_speed_knot,Wind_dir_rel_degree,Wind_speed_rel_m/s,fCO2W@SST_uatm,Qcflag_water,fCO2a_uatm,Qcflag_air,dfCO2_uatm,Fluoro_ug/l,Wind_speed_true_m/s,Wind_dir_true_degree,Air_temp_C,Oxygen
AOML_Explorer,Ex0508E,52.01,21022005,0:14:01,25.969,-79.683,355.08,-9,1023.13,1020.4,24.84,25.06,36.181,1.19,67.89,30.32,1023.13,61.1,24.9,3,18.53,349.57,2,-9,9,-9,0.19,6.24,89.83,21.45,-9
AOML_Explorer,Ex0508E,52.012,21022005,0:16:34,25.978,-79.666,356.03,-9,1023.31,1020.62,24.88,25.09,36.185,1.21,68.38,30.35,1023.31,61.3,24.9,8,17.5,350.32,2,-9,9,-9,0.22,6.02,107.99,21.35,-9
AOML_Explorer,Ex0508E,52.013,21022005,0:19:07,25.986,-79.649,357.13,-9,1023.29,1020.63,24.91,25.11,36.181,1.21,68.84,30.36,1023.29,61.3,24.9,4,19.56,351.25,2,-9,9,-9,0.22,7.29,89.27,21.47,-9
AOML_Explorer,Ex0508E,52.015,21022005,0:21:40,25.995,-79.631,358.14,-9,1023.39,1020.91,24.93,25.12,36.182,1.2,68.36,30.38,1023.39,61.6,24.9,6,15.96,352.12,2,-9,9,-9,0.21,4.33,111.47,21.47,-9
AOML_Explorer,Ex0508E,52.017,21022005,0:24:13,26.003,-79.614,358.81,-9,1023.36,1020.62,24.95,25.14,36.174,1.18,68.97,30.39,1023.36,61.9,24.8,7,18.53,352.75,2,-9,9,-9,0.19,6.68,100.13,21.54,-9
AOML_Explorer,Ex0508E,52.02,21022005,0:29:19,26.02,-79.58,357.36,-9,1023.41,1020.38,24.98,25.17,36.167,1.22,69.59,30.28,1023.41,62.2,24.9,9,20.59,351.33,2,-9,9,-9,0.16,8.82,98.64,21.42,-9
AOML_Explorer,Ex0508E,52.022,21022005,0:31:52,26.028,-79.563,356.7,-9,1023.22,1020.62,25,25.18,36.161,1.23,68.68,30.26,1023.22,61.7,24.9,20,20.07,350.43,2,-9,9,-9,0.17,10.25,121.14,21.56,-9
AOML_Explorer,Ex0508E,52.024,21022005,0:34:25,26.037,-79.545,357.58,-9,1023.45,1020.42,25.01,25.18,36.157,1.24,68.33,30.26,1023.45,62.1,24.9,10,20.59,351.31,2,-9,9,-9,0.15,8.94,100.47,21.51,-9
AOML_Explorer,Ex0508E,52.026,21022005,0:36:58,26.045,-79.528,357.94,-9,1023.36,1020.62,25.02,25.19,36.156,1.19,68.32,30.26,1023.36,62,24.8,13,19.04,351.62,2,-9,9,-9,0.15,8.05,110.98,21.44,-9
AOML_Explorer,Ex0508E,52.027,21022005,0:39:31,26.053,-79.511,358.19,-9,1023.5,1020.65,25.03,25.19,36.15,1.22,68.73,30.27,1023.5,62,24.7,12,18.53,351.83,2,-9,9,-9,0.15,7.45,110.23,21.44,-9
AOML_Explorer,Ex0508E,52.029,21022005,0:42:04,26.061,-79.494,358.41,-9,1023.63,1020.92,25.03,25.19,36.148,1.2,68.98,30.28,1023.63,62.7,24.6,11,19.04,352.04,2,-9,9,-9,0.16,7.77,106.45,21.37,-9
AOML_Explorer,Ex0508E,52.031,21022005,0:44:37,26.069,-79.477,358.43,-9,1024.09,1020.93,25.03,25.18,36.148,1.22,69.29,30.29,1024.09,66,24.5,12,20.59,352.06,2,-9,9,-9,0.16,9.47,108.82,21.46,-9
AOML_Explorer,Ex0508E,52.033,21022005,0:47:10,26.076,-79.459,358.59,-9,1023.5,1020.92,25.03,25.17,36.161,1.23,68.18,30.31,1023.5,67.3,24.5,10,20.59,351.93,2,-9,9,-9,0.15,9.07,104.36,21.48,-9
AOML_Explorer,Ex0508E,52.035,21022005,0:49:43,26.083,-79.441,358.6,-9,1023.44,1020.92,25.02,25.15,36.18,1.18,69.17,30.33,1023.44,67.6,24.4,14,20.07,351.76,2,-9,9,-9,0.19,9.28,114.5,21.46,-9
AOML_Explorer,Ex0508E,52.036,21022005,0:52:16,26.089,-79.424,358.9,-9,1023.56,1020.66,25.01,25.14,36.181,1.21,69.13,30.34,1023.56,68.1,24.5,11,20.07,352.14,2,-9,9,-9,0.19,8.71,108.26,21.4,-9
AOML_Explorer,Ex0508E,52.038,21022005,0:54:49,26.096,-79.406,359.49,-9,1023.6,1020.92,24.99,25.14,36.178,1.24,68.14,30.36,1023.6,67.8,24.6,21,19.04,352.91,2,-9,9,-9,0.2,9.51,130.12,21.48,-9
AOML_Explorer,Ex0508E,52.04,21022005,0:57:22,26.103,-79.388,359.92,-9,1023.6,1021.19,24.99,25.13,36.183,1.22,68.54,30.37,1023.6,64.2,24.7,17,20.07,353.27,2,-9,9,-9,0.22,9.47,115.27,21.43,-9
AOML_Explorer,Ex0508E,52.042,21022005,0:59:55,26.111,-79.371,360.19,-9,1023.43,1020.91,24.98,25.12,36.18,1.23,68.27,30.38,1023.43,64.7,24.9,23,20.07,353.47,2,-9,9,-9,0.2,10.62,127.13,21.64,-9
AOML_Explorer,Ex0508E,52.051,21022005,1:14:01,26.155,-79.275,358.7,-9,1023.44,1020.65,24.88,24.99,36.224,1.21,70,30.49,1023.44,62.6,24.7,22,21.62,351.68,2,-9,9,-9,0.22,11.53,117.07,21.64,-9
AOML_Explorer,Ex0508E,52.053,21022005,1:16:34,26.163,-79.258,359.02,-9,1023.42,1020.93,24.85,24.91,36.25,1.23,68.73,30.51,1023.42,62.8,24.9,18,20.59,351.48,2,-9,9,-9,0.16,9.86,112.78,21.61,-9
AOML_Explorer,Ex0508E,52.055,21022005,1:19:07,26.171,-79.241,359.03,-9,1023.46,1020.9,24.82,24.87,36.25,1.22,69.46,30.52,1023.46,63.6,25.1,23,21.1,351.37,2,-9,9,-9,0.16,11.08,120.69,21.61,-9
AOML_Explorer,Ex0508E,52.057,21022005,1:21:40,26.179,-79.223,358.81,-9,1023.53,1020.92,24.76,24.84,36.274,1.21,69.5,30.53,1023.53,69.1,24.9,14,20.59,351.54,2,-9,9,-9,0.18,9.2,111.23,21.57,-9
AOML_Explorer,Ex0508E,52.058,21022005,1:24:13,26.184,-79.204,358.36,-9,1023.51,1021.19,24.73,24.82,36.29,1.23,69.63,30.54,1023.51,73.6,24.9,16,20.07,351.21,2,-9,9,-9,0.21,9.09,121.57,21.48,-9
AOML_Explorer,Ex0508E,52.06,21022005,1:26:46,26.189,-79.185,358.04,-9,1023.71,1020.92,24.7,24.82,36.288,1.21,69.74,30.55,1023.71,78.6,25,16,19.56,351.3,2,-9,9,-9,0.19,8.68,129.13,21.65,-9
AOML_Explorer,Ex0508E,52.062,21022005,1:29:19,26.192,-79.166,357.72,-9,1023.49,1021.17,24.7,24.82,36.28,1.22,69.94,30.55,1023.49,81.6,25,14,20.07,351.01,2,-9,9,-9,0.19,8.7,125.22,21.56,-9
AOML_Explorer,Ex0508E,52.064,21022005,1:31:52,26.194,-79.146,357.66,-9,1023.56,1021.2,24.69,24.81,36.299,1.23,68.29,30.55,1023.56,81.9,25,10,19.04,351.06,2,-9,9,-9,0.21,7.06,117.83,21.55,-9
AOML_Explorer,Ex0508E,52.066,21022005,1:34:25,26.197,-79.127,357.38,-9,1023.56,1020.93,24.69,24.8,36.304,1.24,68.88,30.56,1023.56,82.5,25,9,20.07,350.47,2,-9,9,-9,0.21,7.88,112.77,21.56,-9
AOML_Explorer,Ex0508E,52.067,21022005,1:36:58,26.199,-79.107,357.27,-9,1023.53,1021.17,24.68,24.75,36.297,1.21,68.97,30.56,1023.53,83,25.1,19,20.07,349.96,2,-9,9,-9,0.2,9.36,135.14,21.65,-9
AOML_Explorer,Ex0508E,52.069,21022005,1:39:31,26.2,-79.087,357.2,-9,1023.64,1020.91,24.65,24.72,36.312,1.22,69.62,30.56,1023.64,88.6,25,14,21.62,349.93,2,-9,9,-9,0.24,10.04,127.48,21.65,-9
AOML_Explorer,Ex0508E,52.071,21022005,1:42:04,26.2,-79.068,357.07,-9,1023.88,1020.94,24.62,24.66,36.372,1.21,68.55,30.56,1023.88,94.3,24.7,1,20.59,349.51,2,-9,9,-9,0.27,7.93,103,21.79,-9
AOML_Explorer,Ex0508E,52.073,21022005,1:44:37,26.198,-79.049,356.96,-9,1023.77,1021.19,24.57,24.61,36.449,1.2,69.93,30.56,1023.77,94.8,24.3,6,19.56,349.44,2,-9,9,-9,0.33,7.3,113.69,21.7,-9
AOML_Explorer,Ex0508E,52.074,21022005,1:47:10,26.197,-79.03,356.82,-9,1023.87,1020.62,24.52,24.59,36.461,1.23,68.64,30.56,1023.87,95.9,24.2,9,20.59,349.79,2,-9,9,-9,0.3,8.57,119.77,21.87,-9
AOML_Explorer,Ex0508E,52.076,21022005,1:49:43,26.195,-79.011,357.14,-9,1024.02,1020.93,24.49,24.63,36.406,1.22,68.18,30.57,1024.02,95.7,24,10,22.13,350.96,2,-9,9,-9,0.28,10.15,116.52,21.81,-9
AOML_Explorer,Ex0508E,52.078,21022005,1:52:16,26.193,-78.992,357.16,-9,1023.72,1021.19,24.5,24.7,36.342,1.21,70.1,30.57,1023.72,94.1,23.8,11,19.56,351.68,2,-9,9,-9,0.24,7.63,115.38,21.64,-9
AOML_Explorer,Ex0508E,52.08,21022005,1:54:49,26.192,-78.973,357.05,-9,1023.94,1021.18,24.54,24.78,36.301,1.21,69.09,30.57,1023.94,96,24.1,10,21.1,352.27,2,-9,9,-9,0.21,8.91,112.5,21.64,-9
AOML_Explorer,Ex0508E,52.082,21022005,1:57:22,26.19,-78.955,356.84,-9,1023.91,1021.17,24.62,24.78,36.306,1.2,68.28,30.57,1023.91,96.1,24.2,14,20.07,350.85,2,-9,9,-9,0.21,8.17,123.36,21.58,-9
AOML_Explorer,Ex0508E,52.083,21022005,1:59:55,26.188,-78.936,356.53,-9,1023.96,1021.17,24.65,24.77,36.329,1.22,68.7,30.57,1023.96,96.7,24.3,8,21.62,350.03,2,-9,9,-9,0.33,9.2,107.39,21.66,-9
AOML_Explorer,Ex0508E,52.093,21022005,2:14:01,26.161,-78.837,356.67,-9,1024,1021.46,24.29,24.24,36.647,1.19,69.9,30.61,1024,123,23.4,356,18.53,348.24,2,-9,9,-9,0.44,6.65,107,21.48,-9
AOML_Explorer,Ex0508E,52.095,21022005,2:16:34,26.152,-78.822,356.76,-9,1024.11,1021.47,24.19,24.21,36.663,1.21,70.67,30.62,1024.11,123.8,23.3,354,20.07,349.26,2,-9,9,-9,0.35,8.35,104.69,21.62,-9
AOML_Explorer,Ex0508E,52.097,21022005,2:19:07,26.143,-78.806,356.69,-9,1024.23,1021.48,24.15,24.16,36.714,1.21,70.37,30.63,1024.23,120.9,23.3,0,20.07,349.21,2,-9,9,-9,0.34,8.1,115.54,21.53,-9
AOML_Explorer,Ex0508E,52.098,21022005,2:21:40,26.135,-78.79,356.61,-9,1024.28,1021.19,24.11,23.98,36.736,1.2,70.58,30.63,1024.28,115.9,23.3,8,21.1,347.21,2,-9,9,-9,0.21,9.27,130.18,21.6,-9
AOML_Explorer,Ex0508E,52.1,21022005,2:24:13,26.129,-78.773,356.92,-9,1024.23,1021.48,24,23.94,36.721,1.19,69.71,30.63,1024.23,110.3,23.3,3,19.56,348.49,2,-9,9,-9,0.2,7.58,114.54,21.44,-9
AOML_Explorer,Ex0508E,52.102,21022005,2:26:46,26.124,-78.756,356.61,-9,1024.36,1021.4,23.89,23.94,36.722,1.23,68.74,30.63,1024.36,105.5,23.4,6,19.56,349.7,2,-9,9,-9,0.22,7.65,116.6,21.41,-9
AOML_Explorer,Ex0508E,52.104,21022005,2:29:19,26.12,-78.738,356.08,-9,1024.18,1021.18,23.89,23.96,36.708,1.21,69.19,30.62,1024.18,102.6,23.4,353,20.59,349.48,2,-9,9,-9,0.24,8.87,82.05,21.22,-9
AOML_Explorer,Ex0508E,52.105,21022005,2:31:52,26.116,-78.72,355.4,-9,1024.2,1021.46,23.88,23.93,36.738,1.2,69.93,30.62,1024.2,102.3,23.6,1,20.07,348.53,2,-9,9,-9,0.24,7.93,100.83,21.1,-9
AOML_Explorer,Ex0508E,52.107,21022005,2:34:25,26.113,-78.702,354.86,-9,1024.26,1020.92,23.88,23.75,36.764,1.21,69.5,30.62,1024.26,102.6,23.4,6,22.13,345.66,2,-9,9,-9,0.21,10.16,112.21,21.41,-9
AOML_Explorer,Ex0508E,52.109,21022005,2:36:58,26.109,-78.684,354.72,-9,1023.95,1020.66,23.76,23.74,36.753,1.21,70.1,30.61,1023.95,102.9,23.3,352,23.68,346.97,2,-9,9,-9,0.25,12.06,82.54,21.54,-9
AOML_Explorer,Ex0508E,52.111,21022005,2:39:31,26.105,-78.666,354.53,-9,1024.01,1020.62,23.71,23.74,36.756,1.23,68.6,30.61,1024.01,103,23.2,356,24.19,347.54,2,-9,9,-9,0.21,12.38,90.94,21.41,-9
AOML_Explorer,Ex0508E,52.113,21022005,2:42:04,26.102,-78.648,354.1,-9,1024.06,1021.12,23.7,23.69,36.774,1.2,68.98,30.61,1024.06,103.1,23.3,359,21.62,346.64,2,-9,9,-9,0.19,9.66,96.26,21.57,-9
AOML_Explorer,Ex0508E,52.114,21022005,2:44:37,26.098,-78.631,353.9,-9,1024.07,1020.91,23.68,23.64,36.774,1.2,68.91,30.6,1024.07,103.2,23.3,358,23.68,346.05,2,-9,9,-9,0.24,11.76,94.15,21.47,-9
AOML_Explorer,Ex0508E,52.116,21022005,2:47:10,26.094,-78.613,353.69,-9,1024.08,1020.89,23.62,23.6,36.783,1.22,68.33,30.6,1024.08,102.8,23.2,356,23.68,346.12,2,-9,9,-9,0.28,11.87,90.66,21.5,-9
AOML_Explorer,Ex0508E,52.118,21022005,2:49:43,26.091,-78.595,353.47,-9,1024.01,1020.89,23.58,23.64,36.782,1.21,68.77,30.59,1024.01,102.6,23.2,4,24.19,346.95,2,-9,9,-9,0.34,12.27,106.77,21.41,-9
AOML_Explorer,Ex0508E,52.12,21022005,2:52:16,26.086,-78.577,353.21,-9,1024.06,1020.61,23.59,23.65,36.774,1.22,70.53,30.58,1024.06,107.9,23.2,350,24.19,346.78,2,-9,9,-9,0.33,12.73,85.1,21.38,-9
AOML_Explorer,Ex0508E,52.121,21022005,2:54:49,26.081,-78.56,353.09,-9,1024.22,1020.56,23.61,23.66,36.786,1.21,70.34,30.58,1024.22,108.5,23.2,351,24.19,346.51,2,-9,9,-9,0.36,12.71,86.25,21.56,-9
AOML_Explorer,Ex0508E,52.123,21022005,2:57:22,26.076,-78.543,353.22,-9,1024.06,1021.11,23.61,23.63,36.783,1.19,69.34,30.57,1024.06,108.7,23.3,346,22.13,346.15,2,-9,9,-9,0.39,11.15,74.74,21.44,-9
AOML_Explorer,Ex0508E,52.125,21022005,2:59:55,26.071,-78.525,353.5,-9,1024.1,1020.85,23.6,23.59,36.793,1.2,68.94,30.57,1024.1,108.5,23.4,351,23.16,346.09,2,-9,9,-9,0.33,11.58,85.87,21.53,-9
AOML_Explorer,Ex0508E,52.135,21022005,3:14:01,26.041,-78.429,351.35,-9,1024.1,1021.17,23.48,23.52,36.78,1.22,69.63,30.6,1024.1,109.1,23.7,356,22.65,344.63,2,-9,9,-9,0.2,10.54,98.94,21.59,-9
AOML_Explorer,Ex0508E,52.137,21022005,3:16:34,26.036,-78.411,351.3,-9,1024.09,1021.12,23.48,23.51,36.785,1.23,67.49,30.61,1024.09,109.1,23.7,352,22.65,344.51,2,-9,9,-9,0.19,10.74,90.68,21.41,-9
AOML_Explorer,Ex0508E,52.138,21022005,3:19:07,26.03,-78.394,351.25,-9,1024.29,1020.9,23.47,23.49,36.785,1.21,70.09,30.61,1024.29,108.8,23.8,347,22.13,344.41,2,-9,9,-9,0.2,10.62,79.63,21.57,-9
AOML_Explorer,Ex0508E,52.14,21022005,3:21:40,26.025,-78.376,351.16,-9,1024.01,1021.13,23.46,23.5,36.782,1.2,67.42,30.61,1024.01,108.2,23.7,357,22.65,344.43,2,-9,9,-9,0.2,10.49,101.64,21.39,-9
AOML_Explorer,Ex0508E,52.142,21022005,3:24:13,26.02,-78.358,351.23,-9,1024.17,1021.19,23.45,23.53,36.78,1.22,69.14,30.61,1024.17,108,23.7,5,22.13,345.05,2,-9,9,-9,0.28,10.05,119.98,21.44,-9
AOML_Explorer,Ex0508E,52.144,21022005,3:26:46,26.015,-78.341,351.19,-9,1024.22,1021.13,23.47,23.54,36.82,1.22,69.32,30.61,1024.22,107.7,23.7,1,22.65,344.96,2,-9,9,-9,0.34,10.46,110.52,21.5,-9
AOML_Explorer,Ex0508E,52.147,21022005,3:31:52,26.005,-78.305,352.64,-9,1024.07,1020.9,23.43,23.4,36.802,1.22,68.41,30.6,1024.07,107.5,23.5,355,22.13,345.08,2,-9,9,-9,0.31,10.11,98.12,21.47,-9
AOML_Explorer,Ex0508E,52.149,21022005,3:34:25,26,-78.288,352.96,-9,1023.99,1020.9,23.38,23.49,36.779,1.2,69.21,30.6,1023.99,107,23.6,356,22.65,347.26,2,-9,9,-9,0.28,10.52,101.68,21.44,-9
AOML_Explorer,Ex0508E,52.151,21022005,3:36:58,25.995,-78.27,352.49,-9,1023.91,1021.17,23.42,23.67,36.716,1.21,68.63,30.59,1023.91,106.3,23.5,0,22.13,348.57,2,-9,9,-9,0.26,10.06,111.15,21.33,-9
AOML_Explorer,Ex0508E,52.152,21022005,3:39:31,25.99,-78.252,352.14,-9,1024.05,1020.9,23.5,23.74,36.736,1.22,67.5,30.59,1024.05,106,23.4,358,22.13,347.97,2,-9,9,-9,0.23,10.09,106.02,21.54,-9
AOML_Explorer,Ex0508E,52.154,21022005,3:42:04,25.986,-78.235,351.91,-9,1024.07,1020.95,23.63,23.77,36.737,1.23,67.61,30.58,1024.07,106.3,23.3,357,21.62,346.43,2,-9,9,-9,0.29,9.63,104.57,21.45,-9
AOML_Explorer,Ex0508E,52.156,21022005,3:44:37,25.981,-78.217,351.84,-9,1024.13,1020.93,23.68,23.82,36.718,1.2,68.61,30.57,1024.13,107,23.2,348,22.13,346.31,2,-9,9,-9,0.29,10.61,84.77,21.2,-9
AOML_Explorer,Ex0508E,52.158,21022005,3:47:10,25.976,-78.2,351.93,-9,1024.07,1021.17,23.72,23.8,36.754,1.2,69.99,30.57,1024.07,106.5,23.1,355,20.59,345.6,2,-9,9,-9,0.34,8.76,97.56,21.53,-9
AOML_Explorer,Ex0508E,52.16,21022005,3:49:43,25.972,-78.183,351.86,-9,1024.11,1021.17,23.74,23.81,36.738,1.24,70.01,30.56,1024.11,106.5,22.8,0,22.13,345.4,2,-9,9,-9,0.38,10.4,108.27,21.25,-9
AOML_Explorer,Ex0508E,52.161,21022005,3:52:16,25.968,-78.165,351.92,-9,1024.16,1020.9,23.73,23.87,36.72,1.24,68.35,30.56,1024.16,104.3,22.7,357,22.13,346.4,2,-9,9,-9,0.33,10.46,100.3,21.31,-9
AOML_Explorer,Ex0508E,52.163,21022005,3:54:49,25.964,-78.148,352.32,-9,1024.26,1021.48,23.76,23.9,36.726,1.22,68.54,30.55,1024.26,104.2,22.6,355,20.59,346.85,2,-9,9,-9,0.39,9.03,94.22,21.47,-9
AOML_Explorer,Ex0508E,52.165,21022005,3:57:22,25.96,-78.131,352.59,-9,1024.05,1021.11,23.81,23.89,36.742,1.23,68.9,30.55,1024.05,104.6,22.7,358,22.13,346.17,2,-9,9,-9,0.4,10.46,101.28,21.29,-9
AOML_Explorer,Ex0508E,52.167,21022005,3:59:55,25.956,-78.114,352.81,-9,1024.31,1021.19,23.81,23.93,36.721,1.2,67.32,30.54,1024.31,105.1,22.7,355,21.62,346.94,2,-9,9,-9,0.34,10.02,94.81,21.35,-9
AOML_Explorer,Ex0508E,52.176,21022005,4:14:01,25.936,-78.018,353.04,-9,1024.06,1021.68,23.77,23.8,36.772,1.19,69.28,30.57,1024.06,102.5,22.7,2,20.59,345.98,2,-9,9,-9,0.35,8.91,106.2,21.18,-9
AOML_Explorer,Ex0508E,52.178,21022005,4:16:34,25.933,-78.001,353.24,-9,1024.14,1021.43,23.75,23.77,36.782,1.2,69.93,30.58,1024.14,102.3,22.7,3,20.07,346.19,2,-9,9,-9,0.35,8.41,108.1,21.24,-9
AOML_Explorer,Ex0508E,52.18,21022005,4:19:07,25.929,-77.984,353.5,-9,1024.19,1021.13,23.73,23.74,36.784,1.21,69.55,30.57,1024.19,103,22.7,1,21.62,346.24,2,-9,9,-9,0.34,9.93,103.67,21.17,-9
AOML_Explorer,Ex0508E,52.182,21022005,4:21:40,25.926,-77.966,353.58,-9,1024.12,1021.17,23.69,23.65,36.796,1.17,69.55,30.57,1024.12,101.9,22.8,1,22.13,345.73,2,-9,9,-9,0.31,10.4,103.66,21.15,-9
AOML_Explorer,Ex0508E,52.183,21022005,4:24:13,25.922,-77.949,353.48,-9,1024.24,1021.18,23.64,23.7,36.775,1.18,69.64,30.57,1024.24,102,22.8,3,21.62,347.06,2,-9,9,-9,0.28,9.92,108.87,21.19,-9
AOML_Explorer,Ex0508E,52.185,21022005,4:26:46,25.919,-77.931,353.46,-9,1024.28,1021.19,23.64,23.68,36.773,1.18,68.8,30.57,1024.28,102.1,22.8,358,23.16,346.77,2,-9,9,-9,0.32,11.44,97.87,21.28,-9
AOML_Explorer,Ex0508E,52.187,21022005,4:29:19,25.916,-77.914,353.26,-9,1024.36,1021.47,23.63,23.69,36.759,1.21,68.19,30.57,1024.36,102,22.7,359,22.13,346.86,2,-9,9,-9,0.28,10.45,99.73,21.19,-9
AOML_Explorer,Ex0508E,52.189,21022005,4:31:52,25.912,-77.897,353.23,-9,1024.01,1020.91,23.63,23.71,36.74,1.19,70.26,30.56,1024.01,101.8,22.6,359,22.65,346.97,2,-9,9,-9,0.24,11.02,99.91,21.12,-9
AOML_Explorer,Ex0508E,52.191,21022005,4:34:25,25.909,-77.879,353.05,-9,1024.11,1021.12,23.64,23.8,36.723,1.19,69.72,30.56,1024.11,102.5,22.4,347,22.13,347.84,2,-9,9,-9,0.26,11.2,76.08,21.06,-9
AOML_Explorer,Ex0508E,52.192,21022005,4:36:58,25.906,-77.862,352.77,-9,1024.03,1021.17,23.69,23.78,36.758,1.18,68.46,30.56,1024.03,101.7,22.4,354,22.65,346.6,2,-9,9,-9,0.31,11.25,89.43,21.13,-9
AOML_Explorer,Ex0508E,52.194,21022005,4:39:31,25.903,-77.845,352.66,-9,1024.06,1021.17,23.72,23.74,36.755,1.17,70.26,30.55,1024.06,101.9,22.3,356,22.13,345.56,2,-9,9,-9,0.31,10.71,94.07,21.08,-9
AOML_Explorer,Ex0508E,52.196,21022005,4:42:04,25.899,-77.829,352.59,-9,1024.11,1021.17,23.69,23.75,36.747,1.2,69.74,30.55,1024.11,104.9,22,352,22.13,346.03,2,-9,9,-9,0.31,11.06,87.76,21.08,-9
AOML_Explorer,Ex0508E,52.198,21022005,4:44:37,25.895,-77.812,352.92,-9,1024.18,1021.17,23.69,23.76,36.746,1.18,68.5,30.54,1024.18,104.3,22,358,21.1,346.56,2,-9,9,-9,0.31,9.79,100.31,21.08,-9
AOML_Explorer,Ex0508E,52.199,21022005,4:47:10,25.891,-77.795,353.07,-9,1024.04,1021.19,23.69,23.74,36.749,1.17,68.38,30.54,1024.04,104,22,359,21.62,346.37,2,-9,9,-9,0.33,10.35,102.12,21.13,-9
AOML_Explorer,Ex0508E,52.201,21022005,4:49:43,25.888,-77.779,352.98,-9,1023.98,1021.17,23.69,23.74,36.75,1.19,69.2,30.53,1023.98,103.8,22,1,20.59,346.23,2,-9,9,-9,0.34,9.27,107.13,21.24,-9
AOML_Explorer,Ex0508E,52.203,21022005,4:52:16,25.884,-77.762,353.15,-9,1024.04,1020.91,23.68,23.73,36.747,1.18,67.98,30.53,1024.04,103.4,22,2,21.62,346.51,2,-9,9,-9,0.33,10.32,108.69,21.1,-9
AOML_Explorer,Ex0508E,52.205,21022005,4:54:49,25.88,-77.745,353.14,-9,1024.22,1021.17,23.67,23.73,36.746,1.21,69.89,30.52,1024.22,108.1,22.2,353,20.59,346.56,2,-9,9,-9,0.37,9.33,93.47,21.03,-9
AOML_Explorer,Ex0508E,52.207,21022005,4:57:22,25.875,-77.729,353.05,-9,1024.12,1021.19,23.67,23.72,36.747,1.19,68.22,30.52,1024.12,107.9,22.2,351,19.04,346.41,2,-9,9,-9,0.37,7.92,87.14,21.02,-9
AOML_Explorer,Ex0508E,52.208,21022005,4:59:55,25.87,-77.713,353.22,-9,1023.97,1021.13,23.66,23.71,36.748,1.18,70.38,30.52,1023.97,108.1,22.2,358,20.59,346.54,2,-9,9,-9,0.36,9.17,104.44,21.13,-9
AOML_Explorer,Ex0508E,52.218,21022005,5:14:01,25.843,-77.621,351.67,-9,1023.95,1021.46,23.6,23.62,36.767,1.18,70.19,30.55,1023.95,107.8,22.6,5,19.04,344.62,2,-9,9,-9,0.36,7.55,122.07,20.9,-9
AOML_Explorer,Ex0508E,52.22,21022005,5:16:34,25.838,-77.604,352.33,-9,1023.81,1021.12,23.58,23.6,36.771,1.18,67.75,30.56,1023.81,108.3,22.7,2,21.1,345.3,2,-9,9,-9,0.37,9.44,113.6,20.83,-9
AOML_Explorer,Ex0508E,52.222,21022005,5:19:07,25.833,-77.587,352.64,-9,1023.89,1021.17,23.56,23.57,36.78,1.16,67.4,30.56,1023.89,108.4,22.7,0,20.59,345.54,2,-9,9,-9,0.35,8.96,109.04,20.9,-9
AOML_Explorer,Ex0508E,52.223,21022005,5:21:40,25.828,-77.57,353.1,-9,1024.11,1020.91,23.54,23.53,36.789,1.17,68.09,30.57,1024.11,108.3,22.7,357,20.59,345.79,2,-9,9,-9,0.24,8.93,102.09,20.95,-9
AOML_Explorer,Ex0508E,52.225,21022005,5:24:13,25.823,-77.553,353.31,-9,1024.05,1021.21,23.5,23.49,36.804,1.17,69.79,30.57,1024.05,103.8,22.7,6,20.07,345.83,2,-9,9,-9,0.24,8.54,117.93,20.97,-9
AOML_Explorer,Ex0508E,52.227,21022005,5:26:46,25.82,-77.536,353.24,-9,1023.89,1020.9,23.47,23.43,36.814,1.2,67.77,30.57,1023.89,104.5,22.8,0,21.1,345.51,2,-9,9,-9,0.29,9.37,104.16,20.85,-9
AOML_Explorer,Ex0508E,52.229,21022005,5:29:19,25.816,-77.519,352.72,-9,1023.84,1020.9,23.42,23.43,36.8,1.17,69.38,30.56,1023.84,104.1,22.8,5,19.04,345.59,2,-9,9,-9,0.27,7.41,116.23,20.85,-9
AOML_Explorer,Ex0508E,52.23,21022005,5:31:52,25.812,-77.502,352.23,-9,1023.84,1020.91,23.39,23.43,36.807,1.16,69.12,30.56,1023.84,104.5,22.9,4,21.62,345.62,2,-9,9,-9,0.28,9.88,112.53,20.89,-9
AOML_Explorer,Ex0508E,52.232,21022005,5:34:25,25.808,-77.484,351.91,-9,1023.82,1020.89,23.39,23.44,36.807,1.17,68.72,30.55,1023.82,104.3,22.9,2,20.59,345.23,2,-9,9,-9,0.28,8.82,108.81,20.99,-9
AOML_Explorer,Ex0508E,52.234,21022005,5:36:58,25.804,-77.467,351.69,-9,1024.06,1020.93,23.39,23.43,36.811,1.17,67.91,30.55,1024.06,104,22.9,359,21.1,345.03,2,-9,9,-9,0.29,9.32,101.87,20.87,-9
AOML_Explorer,Ex0508E,52.236,21022005,5:39:31,25.8,-77.45,351.56,-9,1023.87,1020.91,23.39,23.41,36.815,1.18,68.74,30.55,1023.87,103.8,23.1,1,21.62,344.64,2,-9,9,-9,0.28,9.73,106.49,21.07,-9
AOML_Explorer,Ex0508E,52.238,21022005,5:42:04,25.796,-77.432,351.11,-9,1023.85,1021.13,23.38,23.4,36.812,1.18,67.28,30.54,1023.85,103.4,23.2,11,19.56,344.11,2,-9,9,-9,0.3,8.21,131.78,20.86,-9
AOML_Explorer,Ex0508E,52.239,21022005,5:44:37,25.792,-77.415,351.08,-9,1023.82,1020.89,23.37,23.38,36.812,1.17,67.71,30.54,1023.82,103.4,23,9,21.62,344.09,2,-9,9,-9,0.32,10.14,124.29,20.91,-9
AOML_Explorer,Ex0508E,52.241,21022005,5:47:10,25.788,-77.397,351,-9,1023.87,1020.65,23.35,23.38,36.812,1.19,69.38,30.53,1023.87,103.3,23,5,20.59,344.17,2,-9,9,-9,0.29,8.88,116.42,20.9,-9
AOML_Explorer,Ex0508E,52.243,21022005,5:49:43,25.784,-77.38,351.06,-9,1023.82,1020.91,23.34,23.32,36.839,1.17,68.46,30.53,1023.82,106.7,22.9,352,19.56,343.63,2,-9,9,-9,0.33,8,88.91,20.87,-9
AOML_Explorer,Ex0508E,52.245,21022005,5:52:16,25.78,-77.363,350.79,-9,1023.75,1020.91,23.33,23.36,36.806,1.17,67.98,30.52,1023.75,107,22.8,3,20.07,343.96,2,-9,9,-9,0.31,8.41,116.71,20.89,-9
AOML_Explorer,Ex0508E,52.246,21022005,5:54:49,25.775,-77.346,350.67,-9,1023.74,1020.63,23.3,23.38,36.809,1.17,67.95,30.52,1023.74,107.2,22.8,359,23.16,344.53,2,-9,9,-9,0.31,11.43,107.1,20.72,-9
AOML_Explorer,Ex0508E,52.248,21022005,5:57:22,25.77,-77.329,350.52,-9,1023.72,1020.65,23.33,23.41,36.805,1.17,70.19,30.52,1023.72,107.5,22.7,353,20.59,344.33,2,-9,9,-9,0.32,9.07,93.09,20.74,-9
AOML_Explorer,Ex0508E,52.25,21022005,5:59:55,25.765,-77.312,350.44,-9,1023.65,1020.93,23.35,23.42,36.819,1.15,67.51,30.51,1023.65,107.1,22.8,359,22.65,344.09,2,-9,9,-9,0.3,10.91,107.14,20.64,-9
AOML_Explorer,Ex0508E,52.26,21022005,6:14:01,25.744,-77.218,347.91,-9,1023.59,1020.64,23.3,23.31,36.848,1.18,69.39,30.55,1023.59,94.8,22.7,356,21.62,340.94,2,-9,9,-9,0.3,9.98,86.9,20.74,-9
AOML_Explorer,Ex0508E,52.262,21022005,6:16:34,25.743,-77.2,347.98,-9,1023.73,1020.62,23.28,23.31,36.85,1.14,67.4,30.55,1023.73,95.1,22.8,359,22.13,341.28,2,-9,9,-9,0.31,10.4,92.98,20.62,-9
AOML_Explorer,Ex0508E,52.263,21022005,6:19:07,25.741,-77.182,347.95,-9,1023.59,1020.62,23.27,23.3,36.854,1.15,69.46,30.55,1023.59,94.9,22.8,0,22.13,341.12,2,-9,9,-9,0.33,10.4,95.45,20.67,-9
AOML_Explorer,Ex0508E,52.265,21022005,6:21:40,25.74,-77.164,347.9,-9,1023.65,1020.39,23.27,23.29,36.852,1.14,70.63,30.56,1023.65,95.1,22.9,359,22.13,341.07,2,-9,9,-9,0.32,10.35,92.34,20.73,-9
AOML_Explorer,Ex0508E,52.267,21022005,6:24:13,25.738,-77.146,347.95,-9,1023.63,1020.62,23.26,23.29,36.854,1.15,69.31,30.55,1023.63,95.3,22.9,0,21.62,341.22,2,-9,9,-9,0.33,9.83,94.99,20.7,-9
AOML_Explorer,Ex0508E,52.269,21022005,6:26:46,25.737,-77.128,347.95,-9,1023.53,1020.62,23.25,23.28,36.851,1.18,68.83,30.55,1023.53,95.5,22.9,1,20.59,341.16,2,-9,9,-9,0.32,8.8,96.9,20.49,-9
AOML_Explorer,Ex0508E,52.27,21022005,6:29:19,25.735,-77.11,347.9,-9,1023.56,1020.41,23.25,23.3,36.839,1.16,69.01,30.55,1023.56,95.4,22.9,2,21.62,341.38,2,-9,9,-9,0.35,9.84,99.2,20.56,-9
AOML_Explorer,Ex0508E,52.272,21022005,6:31:52,25.733,-77.093,347.83,-9,1023.46,1020.43,23.25,23.31,36.837,1.15,68.73,30.54,1023.46,96,23,353,20.59,341.36,2,-9,9,-9,0.37,9.06,77.91,20.49,-9
AOML_Explorer,Ex0508E,52.274,21022005,6:34:25,25.732,-77.075,348.15,-9,1023.5,1020.13,23.26,23.31,36.837,1.17,68.96,30.54,1023.5,96.6,23,357,21.1,341.62,2,-9,9,-9,0.37,9.34,86.7,20.75,-9
AOML_Explorer,Ex0508E,52.276,21022005,6:36:58,25.73,-77.057,348.37,-9,1023.45,1020.39,23.27,23.32,36.837,1.14,68.42,30.53,1023.45,96.1,23.1,355,22.65,341.81,2,-9,9,-9,0.36,10.91,82.93,20.48,-9
AOML_Explorer,Ex0508E,52.277,21022005,6:39:31,25.728,-77.039,348.57,-9,1023.49,1020.13,23.28,23.31,36.831,1.16,68.28,30.53,1023.49,96.8,23.1,355,21.62,341.81,2,-9,9,-9,0.4,9.9,82.16,20.52,-9